Tracking 28790 objects as of 18-Apr-2024
HD Live streaming from Space Station
objects crossing your sky now

SL-8 R/B

Track SL-8 R/B now!
10-day predictions


NORAD ID: 8874
Int'l Code: 1976-051B
Perigee: 970.4 km
Apogee: 1,006.3 km
Inclination: 83.0 °
Period: 104.7 minutes
Semi major axis: 7359 km
RCS: 5.0446 m2 (large)
Launch date: June 2, 1976
Source: Commonwealth of Independent States (former USSR) (CIS)
Launch site: PLESETSK MISSILE AND SPACE COMPLEX (PKMTR)

Note: This is a ROCKET BODY
Your satellite tracking list
Your tracking list is empty




NASA's NSSDC Master Catalog

Two Line Element Set (TLE):
1 08874U 76051B   24109.51175728  .00000248  00000-0  24281-3 0  9992
2 08874  82.9574 318.2674 0024405 163.1631 197.0341 13.75130683401402
Source of the keplerian elements: AFSPC